Tehachapi, CA

6:55 AM PST on November 19, 2017 (GMT -0800)
Tehachapi Municipal

Weather History for KTSP - February, 2014

Change the Weather History Date:

Monday, February 24, 2014

  Actual Average Record
Temperature  
Mean Temperature 50 °F -  
Max Temperature 66 °F 56 °F 66 °F (2012)
Min Temperature 33 °F 33 °F 26 °F (2013)
Degree Days  
Heating Degree Days 16    
Moisture  
Dew Point 24 °F    
Average Humidity 30    
Maximum Humidity 75    
Minimum Humidity 15    
Precipitation  
Precipitation 0.00 in - - ()
Sea Level Pressure  
Sea Level Pressure 30.03 in    
Wind  
Wind Speed 8 mph (ESE)    
Max Wind Speed 16 mph    
Max Gust Speed 23 mph    
Visibility 8 miles    
Events      
Averages and records for this station are not official NWS values.
T = Trace of Precipitation, MM = Missing Value Source: NWS Daily Summary

Daily Weather History Graph

Daily Weather History Graph

Search for Another Location

Airport or City:

Trip Planner

Search our weather history database for the weather conditions in past years. The results will help you decide how hot, cold, wet, or windy it might be!

Date:

Astronomy

Feb. 24, 2014 Rise Set
Actual Time 6:29 AM PST 5:44 PM PST
Civil Twilight 6:03 AM PST 6:10 PM PST
Nautical Twilight 5:34 AM PST 6:40 PM PST
Astronomical Twilight 5:05 AM PST 7:09 PM PST
Moon 2:25 AM PST (2/24) 12:57 PM PST (2/24)
Length of Visible Light 12h 06m
Length of Day
11h 15m
Waning Crescent, 27% of the Moon is Illuminated
Feb 24
Waning Crescent
Mar 1
New
Mar 8
First Quarter
Mar 16
Full
Mar 23
Last Quarter

Hourly Weather History & Observations

Time (PST) Temp. Windchill Dew Point Humidity Pressure Visibility Wind Dir Wind Speed Gust Speed Precip Events Conditions
12:15 AM - - - N/A% - - North - - N/A   Unknown
12:35 AM - - - N/A% - - North - - N/A   Unknown
12:55 AM - - - N/A% - - North - - N/A   Unknown
1:15 AM - - - N/A% - - North - - N/A   Unknown
1:35 AM 33.8 °F 30.8 °F 26.6 °F 75% 30.06 in 7.0 mi East 3.5 mph - N/A   Unknown
1:55 AM - - - N/A% - - North - - N/A   Unknown
2:15 AM - - - N/A% - - North - - N/A   Unknown
2:35 AM - - - N/A% - - North - - N/A   Unknown
2:55 AM - - - N/A% - - North - - N/A   Unknown
3:15 AM - - - N/A% - - North - - N/A   Unknown
3:35 AM - - - N/A% - - North - - N/A   Unknown
3:55 AM - - - N/A% - - North - - N/A   Unknown
4:15 AM - - - N/A% - - North - - N/A   Unknown
4:35 AM - - - N/A% - - North - - N/A   Unknown
4:55 AM - - - N/A% - - North - - N/A   Unknown
5:15 AM - - - N/A% - - North - - N/A   Unknown
5:35 AM - - - N/A% - - North - - N/A   Unknown
5:55 AM - - - N/A% - - North - - N/A   Unknown
6:15 AM - - - N/A% - - North - - N/A   Unknown
6:35 AM - - - N/A% - - North - - N/A   Unknown
6:55 AM - - - N/A% - - North - - N/A   Unknown
7:15 AM - - - N/A% - - North - - N/A   Unknown
7:35 AM - - - N/A% - 5.0 mi North - - N/A   Haze
7:55 AM - - - N/A% - - North - - N/A   Unknown
8:15 AM - - - N/A% - - North - - N/A   Unknown
8:35 AM - - - N/A% - - North - - N/A   Unknown
8:55 AM - - - N/A% - - North - - N/A   Unknown
9:15 AM 59.0 °F - 28.4 °F 31% 30.07 in 8.0 mi ESE 9.2 mph - N/A   Unknown
9:35 AM 60.8 °F - 26.6 °F 27% 30.07 in 8.0 mi ESE 10.4 mph - N/A   Clear
9:55 AM 62.6 °F - 24.8 °F 24% 30.07 in 5.0 mi ESE 10.4 mph - N/A   Haze
10:15 AM 62.6 °F - 24.8 °F 24% 30.07 in 8.0 mi SE 12.7 mph 17.3 mph N/A   Clear
10:35 AM 64.4 °F - 24.8 °F 22% 30.07 in 7.0 mi ESE 12.7 mph - N/A   Clear
10:55 AM 64.4 °F - 24.8 °F 22% 30.07 in 9.0 mi ESE 12.7 mph 19.6 mph N/A   Clear
11:15 AM 66.2 °F - 23.0 °F 19% 30.06 in 9.0 mi ESE 12.7 mph 19.6 mph N/A   Clear
11:35 AM 66.2 °F - 23.0 °F 19% 30.05 in 9.0 mi SE 16.1 mph 20.7 mph N/A   Clear
11:55 AM 66.2 °F - 21.2 °F 18% 30.05 in 9.0 mi ESE 12.7 mph 23.0 mph N/A   Clear
12:15 PM 66.2 °F - 23.0 °F 19% 30.04 in 8.0 mi SE 13.8 mph 20.7 mph N/A   Clear
12:35 PM 66.2 °F - 21.2 °F 18% 30.04 in 8.0 mi SE 8.1 mph 20.7 mph N/A   Clear
12:55 PM 66.2 °F - 21.2 °F 18% 30.03 in 10.0 mi SE 9.2 mph 17.3 mph N/A   Clear
1:15 PM 66.2 °F - 21.2 °F 18% 30.03 in 10.0 mi East 11.5 mph 19.6 mph N/A   Clear
1:35 PM 66.2 °F - 19.4 °F 17% 30.02 in 9.0 mi SE 12.7 mph 17.3 mph N/A   Clear
1:55 PM 66.2 °F - 19.4 °F 17% 30.01 in 10.0 mi SE 13.8 mph 19.6 mph N/A   Clear
2:15 PM 66.2 °F - 19.4 °F 17% 30.01 in 9.0 mi ESE 6.9 mph 16.1 mph N/A   Clear
2:35 PM 66.2 °F - 19.4 °F 17% 30.00 in 10.0 mi ESE 11.5 mph 17.3 mph N/A   Clear
2:55 PM 66.2 °F - 19.4 °F 17% 30.00 in 10.0 mi ESE 12.7 mph 16.1 mph N/A   Clear
3:15 PM 66.2 °F - 19.4 °F 17% 30.00 in 10.0 mi SSE 9.2 mph - N/A   Clear
3:35 PM 66.2 °F - 19.4 °F 17% 30.00 in 10.0 mi SE 8.1 mph - N/A   Clear
3:55 PM 66.2 °F - 19.4 °F 17% 30.00 in 10.0 mi SE 11.5 mph - N/A   Clear
4:15 PM 66.2 °F - 17.6 °F 15% 30.00 in 10.0 mi ESE 6.9 mph - N/A   Clear
4:35 PM 64.4 °F - 19.4 °F 18% 30.00 in 10.0 mi East 9.2 mph - N/A   Clear
4:55 PM 64.4 °F - 19.4 °F 18% 30.00 in 10.0 mi ESE 6.9 mph - N/A   Clear
5:15 PM 62.6 °F - 28.4 °F 27% 30.00 in 8.0 mi North 3.5 mph - N/A   Clear
5:35 PM 59.0 °F - 32.0 °F 36% 30.01 in 6.0 mi NW 4.6 mph - N/A   Haze
5:55 PM 55.4 °F - 32.0 °F 41% 30.01 in 5.0 mi WNW 3.5 mph - N/A   Haze
6:15 PM 53.6 °F - 32.0 °F 44% 30.01 in 7.0 mi Calm Calm - N/A   Clear
6:35 PM 53.6 °F - 33.8 °F 47% 30.02 in 7.0 mi Calm Calm - N/A   Clear
6:55 PM 48.2 °F - 30.2 °F 50% 30.03 in 7.0 mi NE 3.5 mph - N/A   Clear
7:15 PM - - - N/A% - 8.0 mi North - - N/A   Unknown
7:35 PM 46.4 °F - 30.2 °F 53% 30.03 in 7.0 mi Calm Calm - N/A   Unknown
7:55 PM 46.4 °F 43.5 °F 26.6 °F 46% 30.04 in 7.0 mi ESE 5.8 mph - N/A   Clear
8:15 PM 44.6 °F 42.2 °F 26.6 °F 49% 30.05 in 8.0 mi ESE 4.6 mph - N/A   Clear
8:35 PM - - - N/A% - - North - - N/A   Unknown
8:55 PM - - - N/A% - - North - - N/A   Unknown
9:15 PM 41.0 °F - 24.8 °F 53% 30.05 in 8.0 mi Calm Calm - N/A   Unknown
9:35 PM 41.0 °F - 24.8 °F 53% 30.05 in 8.0 mi Calm Calm - N/A   Clear
9:55 PM - - - N/A% - - North - - N/A   Unknown
10:15 PM - - - N/A% - - North - - N/A   Unknown
10:35 PM 39.2 °F 35.9 °F 23.0 °F 52% 30.05 in 10.0 mi SE 4.6 mph - N/A   Unknown
10:55 PM 39.2 °F 37.0 °F 23.0 °F 52% 30.06 in 10.0 mi ESE 3.5 mph - N/A   Clear
11:15 PM - - - N/A% - 9.0 mi North - - N/A   Unknown
11:35 PM - - - N/A% - - North - - N/A   Unknown
11:55 PM - - - N/A% - - North - - N/A   Unknown